Location: Newark
(34.9500°N, 139.9667°E)
Time: 00:10:14
(UTC+00:00)

Transit 2A - Pass Details

Date: 13 December 2019
Orbit: 601 x 957 km, 66.7° (Epoch: 20 January)

Event Time Altitude Azimuth Distance (km) Brightness Sun altitude
Rises 21:51:40 0° 252° (WSW) 3,073 8.7 1.4°
Reaches altitude 10° 21:55:15 10° 278° (W) 2,086 7.7 2.0°
Maximum altitude 21:57:34 14° 308° (NW) 1,818 7.4 2.4°
Drops below altitude 10° 21:59:51 10° 339° (NNW) 2,014 7.7 2.8°
Sets 22:03:12 0° 6° (N) 2,884 8.7 3.4°
